| time (UTC) | temp C | wind direction | speed KPH | gust KPH | rain 1hr cm | rain 24hr cm | rain mn cm | humidity % | barometer mb |
| 20260510000026 | 5 | 7 | 1.6 | 4.8 | 0.00 | 0.00 | 0.00 | 63 | 1008.3 |
| 20260509234504 | 5 | 11 | 1.6 | 14.5 | 0.00 | 0.00 | 0.00 | 63 | 1008.1 |
| 20260509233048 | 5 | 353 | 1.6 | 6.4 | 0.00 | 0.00 | 0.00 | 63 | 1007.9 |
| 20260509231521 | 5 | 355 | 1.6 | 16.1 | 0.00 | 0.00 | 0.00 | 63 | 1007.8 |
| 20260509230017 | 6 | 348 | 1.6 | 16.1 | 0.00 | 0.00 | 0.00 | 62 | 1007.7 |
| 20260509224551 | 6 | 9 | 1.6 | 14.5 | 0.00 | 0.00 | 0.00 | 62 | 1007.4 |
| 20260509223043 | 6 | 357 | 8.0 | 17.7 | 0.00 | 0.00 | 0.00 | 59 | 1007.0 |
| 20260509221515 | 6 | 354 | 1.6 | 14.5 | 0.00 | 0.00 | 0.00 | 58 | 1006.6 |
| 20260509220056 | 7 | 17 | 3.2 | 24.1 | 0.00 | 0.00 | 0.00 | 56 | 1006.3 |
| 20260509214537 | 8 | 354 | 4.8 | 19.3 | 0.00 | 0.00 | 0.00 | 52 | 1006.1 |
| 20260509213019 | 8 | 359 | 3.2 | 20.9 | 0.00 | 0.00 | 0.00 | 52 | 1005.7 |
| 20260509211504 | 8 | 17 | 8.0 | 24.1 | 0.00 | 0.00 | 0.00 | 52 | 1005.7 |
| 20260509210047 | 7 | 337 | 3.2 | 19.3 | 0.00 | 0.00 | 0.00 | 56 | 1005.5 |
| 20260509204531 | 7 | 335 | 6.4 | 20.9 | 0.00 | 0.00 | 0.00 | 59 | 1005.3 |
| 20260509203016 | 7 | 333 | 4.8 | 14.5 | 0.00 | 0.00 | 0.00 | 62 | 1004.8 |
| 20260509201556 | 7 | 55 | 6.4 | 27.4 | 0.00 | 0.00 | 0.00 | 60 | 1004.6 |
| 20260509200033 | 8 | 27 | 6.4 | 32.2 | 0.00 | 0.00 | 0.00 | 60 | 1004.2 |
| 20260509194511 | 8 | 342 | 3.2 | 19.3 | 0.00 | 0.00 | 0.00 | 58 | 1003.7 |
| 20260509193108 | 8 | 350 | 6.4 | 24.1 | 0.00 | 0.00 | 0.00 | 57 | 1002.9 |
| 20260509191530 | 9 | 359 | 3.2 | 19.3 | 0.00 | 0.00 | 0.00 | 55 | 1002.7 |
| 20260509190010 | 10 | 351 | 4.8 | 12.9 | 0.00 | 0.00 | 0.00 | 48 | 1002.3 |
| 20260509184558 | 10 | 11 | 6.4 | 33.8 | 0.00 | 0.00 | 0.00 | 45 | 1001.9 |
| 20260509183029 | 11 | 350 | 4.8 | 22.5 | 0.00 | 0.00 | 0.00 | 40 | 1001.5 |
| 20260509181515 | 11 | 59 | 6.4 | 24.1 | 0.00 | 0.00 | 0.00 | 37 | 1001.1 |
| 20260509180053 | 11 | 348 | 4.8 | 24.1 | 0.00 | 0.00 | 0.00 | 38 | 1001.1 |
| 20260509174535 | 10 | 326 | 4.8 | 12.9 | 0.00 | 0.00 | 0.00 | 37 | 1000.6 |
| 20260509173023 | 10 | 338 | 4.8 | 17.7 | 0.00 | 0.00 | 0.00 | 34 | 1000.5 |
| 20260509171510 | 10 | 16 | 3.2 | 11.3 | 0.00 | 0.00 | 0.00 | 36 | 1000.4 |
| 20260509170047 | 11 | 7 | 4.8 | 12.9 | 0.00 | 0.00 | 0.00 | 37 | 1000.2 |
| 20260509164529 | 10 | 329 | 3.2 | 12.9 | 0.00 | 0.00 | 0.00 | 36 | 1000.0 |
| 20260509163018 | 10 | 329 | 4.8 | 14.5 | 0.00 | 0.00 | 0.00 | 34 | 999.8 |
| 20260509161502 | 11 | 345 | 3.2 | 20.9 | 0.00 | 0.00 | 0.00 | 36 | 999.5 |
| 20260509160047 | 11 | 22 | 3.2 | 14.5 | 0.00 | 0.00 | 0.00 | 38 | 999.2 |
| 20260509154535 | 11 | 343 | 6.4 | 19.3 | 0.00 | 0.00 | 0.00 | 37 | 998.8 |
| 20260509153011 | 11 | 336 | 1.6 | 11.3 | 0.00 | 0.00 | 0.00 | 38 | 998.5 |
| 20260509151549 | 11 | 325 | 3.2 | 6.4 | 0.00 | 0.00 | 0.00 | 39 | 998.5 |
| 20260509150027 | 10 | 316 | 1.6 | 4.8 | 0.00 | 0.03 | 0.00 | 43 | 998.4 |
| 20260509144517 | 10 | 344 | 1.6 | 6.4 | 0.00 | 0.03 | 0.00 | 46 | 998.3 |
| 20260509143052 | 10 | 337 | 1.6 | 6.4 | 0.00 | 0.03 | 0.00 | 45 | 998.1 |
| 20260509141540 | 10 | 36 | 1.6 | 11.3 | 0.00 | 0.03 | 0.00 | 51 | 998.1 |
| 20260509140017 | 10 | 7 | 1.6 | 8.0 | 0.00 | 0.03 | 0.00 | 53 | 998.2 |
| 20260509134557 | 10 | 332 | 3.2 | 11.3 | 0.00 | 0.03 | 0.00 | 51 | 998.2 |
| 20260509133038 | 10 | 5 | 1.6 | 8.0 | 0.00 | 0.03 | 0.00 | 56 | 998.0 |
| 20260509131522 | 9 | 336 | 1.6 | 14.5 | 0.00 | 0.03 | 0.00 | 57 | 997.6 |
| 20260509130106 | 8 | 30 | 1.6 | 3.2 | 0.00 | 0.03 | 0.00 | 57 | 997.4 |
| 20260509124559 | 8 | 26 | 0.0 | 3.2 | 0.00 | 0.03 | 0.00 | 59 | 997.2 |
| 20260509123026 | 8 | 348 | 1.6 | 6.4 | 0.00 | 0.03 | 0.00 | 58 | 997.2 |
| 20260509121518 | 7 | 336 | 1.6 | 3.2 | 0.00 | 0.03 | 0.00 | 61 | 997.0 |
| 20260509120044 | 7 | 336 | 1.6 | 4.8 | 0.00 | 0.03 | 0.00 | 63 | 997.0 |
| 20260509114530 | 7 | 348 | 0.0 | 4.8 | 0.00 | 0.03 | 0.00 | 65 | 997.1 |
| 20260509113013 | 6 | 4 | 3.2 | 14.5 | 0.00 | 0.03 | 0.00 | 68 | 996.9 |
| 20260509111558 | 6 | 38 | 0.0 | 4.8 | 0.00 | 0.03 | 0.00 | 68 | 997.0 |
| 20260509110038 | 6 | 21 | 3.2 | 11.3 | 0.00 | 0.03 | 0.00 | 70 | 996.8 |
| 20260509104530 | 5 | 11 | 0.0 | 3.2 | 0.00 | 0.03 | 0.00 | 75 | 997.0 |
| 20260509103056 | 5 | 332 | 0.0 | 0.0 | 0.00 | 0.03 | 0.00 | 78 | 996.8 |
| 20260509103004 | 5 | 278 | 0.0 | 0.0 | 0.00 | 0.03 | 0.00 | 78 | 996.8 |
| 20260509101540 | 5 | 344 | 0.0 | 1.6 | 0.00 | 0.03 | 0.00 | 79 | 996.4 |
| 20260509100033 | 4 | 330 | 0.0 | 3.2 | 0.00 | 0.03 | 0.00 | 80 | 996.6 |
| 20260509094515 | 4 | 276 | 0.0 | 3.2 | 0.00 | 0.03 | 0.00 | 80 | 996.5 |
| 20260509093048 | 4 | 174 | 1.6 | 4.8 | 0.00 | 0.03 | 0.00 | 81 | 996.5 |
| 20260509091526 | 4 | 176 | 0.0 | 4.8 | 0.00 | 0.03 | 0.00 | 81 | 996.9 |
| 20260509090014 | 3 | 174 | 1.6 | 3.2 | 0.00 | 0.03 | 0.00 | 81 | 997.4 |
| 20260509084555 | 3 | 167 | 0.0 | 3.2 | 0.00 | 0.03 | 0.00 | 81 | 997.6 |
| 20260509083041 | 3 | 166 | 0.0 | 4.8 | 0.00 | 0.03 | 0.00 | 80 | 997.6 |
| 20260509081539 | 3 | 176 | 1.6 | 3.2 | 0.00 | 0.03 | 0.00 | 80 | 997.7 |
| 20260509080009 | 3 | 176 | 1.6 | 4.8 | 0.00 | 0.03 | 0.00 | 80 | 997.6 |
| 20260509074558 | 3 | 177 | 0.0 | 3.2 | 0.00 | 0.03 | 0.00 | 79 | 997.7 |
| 20260509073036 | 3 | 179 | 0.0 | 3.2 | 0.00 | 0.03 | 0.00 | 79 | 997.9 |
| 20260509071520 | 3 | 188 | 1.6 | 6.4 | 0.00 | 0.03 | 0.00 | 79 | 998.2 |
| 20260509070057 | 3 | 165 | 0.0 | 4.8 | 0.00 | 0.03 | 0.00 | 79 | 998.4 |
| 20260509070003 | 3 | 165 | 0.0 | 4.8 | 0.00 | 0.03 | 0.00 | 79 | 998.4 |
| 20260509064542 | 3 | 183 | 0.0 | 1.6 | 0.00 | 0.03 | 0.00 | 78 | 998.8 |
| 20260509063029 | 3 | 182 | 0.0 | 1.6 | 0.00 | 0.03 | 0.00 | 79 | 999.1 |
| 20260509061510 | 3 | 175 | 1.6 | 4.8 | 0.00 | 0.03 | 0.00 | 79 | 999.3 |
| 20260509054526 | 3 | 178 | 0.0 | 0.0 | 0.00 | 0.03 | 0.00 | 78 | 999.8 |
| 20260509053009 | 3 | 178 | 0.0 | 1.6 | 0.00 | 0.03 | 0.00 | 78 | 999.9 |
| 20260509051544 | 3 | 178 | 0.0 | 1.6 | 0.00 | 0.03 | 0.00 | 78 | 1000.1 |
| 20260509050033 | 3 | 177 | 0.0 | 3.2 | 0.00 | 0.03 | 0.00 | 78 | 1000.2 |
| 20260509044513 | 3 | 177 | 1.6 | 3.2 | 0.00 | 0.03 | 0.00 | 76 | 1000.5 |
| 20260509043045 | 3 | 177 | 0.0 | 0.0 | 0.00 | 0.03 | 0.00 | 74 | 1000.7 |
| 20260509041524 | 4 | 177 | 0.0 | 0.0 | 0.00 | 0.03 | 0.00 | 73 | 1001.1 |
| 20260509040059 | 4 | 177 | 0.0 | 1.6 | 0.00 | 0.08 | 0.03 | 72 | 1001.5 |
| 20260509034539 | 5 | 177 | 0.0 | 1.6 | 0.00 | 0.08 | 0.03 | 71 | 1001.7 |
| 20260509033018 | 5 | 177 | 0.0 | 0.0 | 0.00 | 0.08 | 0.03 | 71 | 1001.8 |
| 20260509031604 | 5 | 177 | 0.0 | 1.6 | 0.00 | 0.08 | 0.03 | 69 | 1002.0 |
| 20260509031502 | 5 | 177 | 0.0 | 1.6 | 0.00 | 0.08 | 0.03 | 69 | 1002.0 |
| 20260509030048 | 5 | 181 | 1.6 | 4.8 | 0.00 | 0.23 | 0.03 | 68 | 1002.1 |
| 20260509024526 | 5 | 105 | 0.0 | 1.6 | 0.00 | 0.23 | 0.03 | 64 | 1002.2 |
| 20260509023015 | 6 | 105 | 0.0 | 1.6 | 0.00 | 0.23 | 0.03 | 62 | 1002.4 |
| 20260509021552 | 6 | 83 | 0.0 | 0.0 | 0.00 | 0.23 | 0.03 | 56 | 1002.7 |
| 20260509020037 | 7 | 83 | 0.0 | 0.0 | 0.00 | 0.23 | 0.03 | 56 | 1002.8 |
| 20260509014526 | 7 | 36 | 0.0 | 1.6 | 0.00 | 0.23 | 0.03 | 54 | 1002.9 |
| 20260509013032 | 8 | 36 | 0.0 | 0.0 | 0.00 | 0.23 | 0.03 | 52 | 1003.0 |
| 20260509011600 | 8 | 36 | 0.0 | 0.0 | 0.00 | 0.23 | 0.03 | 50 | 1003.1 |
| 20260509011501 | 8 | 36 | 0.0 | 0.0 | 0.00 | 0.23 | 0.03 | 50 | 1003.1 |
| 20260509010050 | 9 | 36 | 0.0 | 3.2 | 0.00 | 0.23 | 0.03 | 48 | 1003.1 |
| 20260509004536 | 9 | 34 | 0.0 | 3.2 | 0.00 | 0.23 | 0.03 | 47 | 1003.0 |
| 20260509003025 | 10 | 21 | 0.0 | 3.2 | 0.00 | 0.23 | 0.03 | 44 | 1002.9 |
| 20260509001513 | 10 | 43 | 0.0 | 3.2 | 0.00 | 0.23 | 0.03 | 43 | 1002.8 |